Location: C�mpuri de-Sus
(45.9500°N, 22.5500°E)
Time: 13:32:27
(UTC+00:00)

Iridium 4 Rocket - Pass Details

Date: 24 October 2021
Orbit: 586 x 903 km, 86.9° (Epoch: 06 December)

Event Time Altitude Azimuth Distance (km) Brightness Sun altitude
Rises 16:58:32 0° 353° (N) 2,989 6.7 -16.3°
Reaches altitude 10° 17:00:43 10° 350° (N) 2,114 5.9 -16.7°
Maximum altitude 17:05:20 61° 271° (W) 813 3.9 -17.5°
Drops below altitude 10° 17:10:22 10° 192° (SSW) 2,298 6.1 -18.4°
Sets 17:12:49 0° 189° (S) 3,272 6.9 -18.8°
